Regional Weather Roundup
Issued by NWS

Home | Current Version | Previous Version | Graphics & Text | Print | Product List | Glossary On
Versions: 1 2 3 4 5 6 7 8 9 10 11 12 13 14 15 16 17 18 19 20 21 22 23 24 25 26 27 28 29 30 31 32 33 34 35 36 37 38 39 40 41 42 43 44 45 46 47 48 49 50
000
ASUS43 KBIS 302102
RWRND

NORTH DAKOTA REGIONAL WEATHER ROUNDUP
NATIONAL WEATHER SERVICE BISMARCK ND
400 PM CDT TUE JUN 30 2015

NOTE: "FAIR" INDICATES FEW OR NO CLOUDS BELOW 12,000 FEET WITH NO
SIGNIFICANT WEATHER AND/OR OBSTRUCTIONS TO VISIBILITY.


NDZ001>003-009>011-017-302200-
NORTHWEST NORTH DAKOTA

CITY           SKY/WX    TMP DP  RH WIND       PRES   REMARKS
WILLISTON      PTSUNNY   78  57  48 E16       29.89S HAZE
MINOT          CLOUDY    68  63  84 N6        29.90F HAZE
MINOT AFB      CLOUDY    70  70  99 NE8       29.90F
$$

NDZ018>021-031>035-040>046-302200-
SOUTHWEST NORTH DAKOTA

CITY           SKY/WX    TMP DP  RH WIND       PRES   REMARKS
BISMARCK       CLOUDY    77  59  53 SE8       29.89F
DICKINSON      MOSUNNY   76  63  64 SE16      29.88F
GARRISON         N/A     70  67  90 CALM      29.92R
HETTINGER ARPT CLOUDY    78  65  63 SE16G24   29.90F
$$

NDZ004>008-012>016-024-026-027-054-302200-
NORTHEAST NORTH DAKOTA

CITY           SKY/WX    TMP DP  RH WIND       PRES   REMARKS
GRAND FORKS    CLOUDY    76  58  53 SE6       29.91S
GRND FRKS AFB  CLOUDY    74  59  58 SE6       29.92R
DEVILS LAKE    CLOUDY    70  57  64 E7        29.93R
$$

NDZ022-023-025-028>030-036>039-047>053-302200-
SOUTHEAST NORTH DAKOTA

CITY           SKY/WX    TMP DP  RH WIND       PRES   REMARKS
FARGO          CLOUDY    74  58  57 E6        29.90F
JAMESTOWN      PTSUNNY   73  61  65 SE10      29.91F
$$




USA.gov is the U.S. government's official web portal to all federal, state and local government web resources and services.